Regional Weather Roundup
Issued by NWS

Home | Current Version | Previous Version | Graphics & Text | Print | Product List | Glossary On
Versions: 1 2 3 4 5 6 7 8 9 10 11 12 13 14 15 16 17 18 19 20 21 22 23 24 25 26 27 28 29 30 31 32 33 34 35 36 37 38 39 40 41 42 43 44 45 46 47 48 49 50
000
ASUS45 KABQ 271601
RWRNM
WEATHER ROUNDUP FOR NEW MEXICO
NATIONAL WEATHER SERVICE ALBUQUERQUE NM
900 AM MST FRI FEB 27 2015

NOTE: "FAIR" MEANS FEW OR NO CLOUDS BELOW 12,000 FEET AGL WITH NO
       SIGNIFICANT WEATHER OR OBSTRUCTIONS TO VISION.

      THIS PRODUCT IS RELEASED AS TWO VERSIONS.  ONE VERSION NEAR
      THE TOP OF THE HOUR CONTAINING PRELIMINARY DATA FROM ALBUQUERQUE
      AND OTHER STATIONS.  A FINAL VERSION WITH ADDITIONAL DATA IS
      ISSUED ABOUT 10 MINUTES AFTER THE HOUR.

NMZ501-503-504-510>518-271700-
NORTHWEST PLATEAU/NORTHCENTRAL MOUNTAINS

CITY           SKY/WX    TMP DP  RH WIND       PRES   REMARKS
FARMINGTON     CLOUDY    31  26  82 CALM      29.88R
SANTA FE       LGT SNOW  17  10  74 SE16      29.99R WCI   2
TAOS           CLOUDY    16   9  73 CALM      29.94S
ANGEL FIRE     LGT SNOW  10   6  81 S10       29.87S WCI  -3

$$
NMZ402-403-502-505>509-271700-
WESTCENTRAL MOUNTAINS/SOUTHWEST MOUNTAINS

CITY           SKY/WX    TMP DP  RH WIND       PRES   REMARKS
GALLUP         CLOUDY    31  27  85 W3        29.86R
SILVER CITY    MOSUNNY   32  25  74 CALM      29.99S

$$
NMZ407-409-411-412-271700-
SOUTHERN DESERTS

CITY           SKY/WX    TMP DP  RH WIND       PRES   REMARKS
DEMING         SUNNY     35  25  66 E13       30.01R WCI  26
HOLLOMAN AFB   CLOUDY    33  26  75 N3        30.05R
ALAMOGORDO     CLOUDY    32  27  80 N6        30.07R WCI  26
T OR C         CLOUDY    33  27  78 S7        30.00R WCI  27

$$
NMZ519>523-271700-
CENTRAL VALLEYS/CENTRAL HIGHLANDS

CITY           SKY/WX    TMP DP  RH WIND       PRES   REMARKS
ALBUQUERQUE    CLOUDY    24  18  77 W7        30.01R WCI  16
DOUBLE EAGLE   CLOUDY    19  16  86 N13       30.00R WCI   7
MORIARTY ARPT  FLURRIES  16   9  75 SE9       30.04S WCI   4
CLINES CORNERS LGT SNOW  11   7  84 SE13      29.96S FOG     WCI  -4
BELEN          CLOUDY    26  22  88 W3        30.02R
SOCORRO          N/A     29  28  94 CALM      30.02R

$$
NMZ524>526-539-540-271700-
SOUTHCENTRAL MOUNTAINS

CITY           SKY/WX    TMP DP  RH WIND       PRES   REMARKS
RUIDOSO        NOT AVBL

$$
NMZ527>531-271700-
NORTHEAST HIGHLANDS/NORTHEAST PLAINS

CITY           SKY/WX    TMP DP  RH WIND       PRES   REMARKS
LAS VEGAS      LGT SNOW   9   6  88 S18       29.99F FOG     WCI -10
RATON          LGT SNOW   9   6  88 S17       30.01S FOG     WCI  -9
CLAYTON        LGT SNOW  10   6  84 SE16      30.15S VSB 1   WCI  -7

$$
NMZ532>537-271700-
EASTCENTRAL PLAINS

CITY           SKY/WX    TMP DP  RH WIND       PRES   REMARKS
TUCUMCARI      LGT SNOW  17  10  74 S14       30.22R WCI   3
CANNON AFB     FLURRIES  12   9  85 SE15      30.22R WCI  -4
CLOVIS AIRPORT CLOUDY    12   7  79 SE15      30.23R WCI  -4

$$
NMZ028-029-538-271700-
SOUTHEAST PLAINS

CITY           SKY/WX    TMP DP  RH WIND       PRES   REMARKS
ROSWELL        CLOUDY    19  14  81 SE13      30.23S WCI   6
ARTESIA        CLOUDY    21  21 100 SE13      30.25S FOG     WCI   9
CARLSBAD       CLOUDY    22  19  89 E14       30.25R FOG     WCI   9
HOBBS          LGT SNOW  16  16 100 NE10      30.26R WCI   3


$$


USA.gov is the U.S. government's official web portal to all federal, state and local government web resources and services.